#timestamp,LO_Frequency,Hit,StdDev 
1663772415.6,286046996.7,P
1663772435.4,286046996.8,P
1663772455.2,286046997.1,P
1663772475.1,286046999.4,N
1663772476.0,286046999.4,N
1663772495.8,286046998.7,N
1663772515.7,286047000.7,N
1663772535.5,286047001.2,N
1663772555.3,286047000.0,N
1663772575.2,286047002.8,N
1663772595.0,286047000.2,N
1663772595.9,286047000.2,N
1663772615.7,286047000.0,N
1663772635.6,286047001.0,N
1663772655.4,286046998.8,N
1663772675.3,286046996.5,N
1663772695.1,286047000.6,N
1663772696.0,286047000.6,N
1663772715.8,286046999.9,N
1663772735.7,286047002.5,N
1663772755.5,286047002.5,N
1663772775.3,286047002.6,N
1663772795.2,286046998.6,N
1663772815.0,286046998.3,N
1663772815.9,286046998.3,N
1663772835.8,286046999.5,N
1663772855.6,286046995.4,N
1663772875.4,286046998.0,N
1663772895.3,286046995.4,N
1663772915.1,286046995.8,N
1663772935.8,286046997.9,N
1663772955.7,286046997.1,N
1663772975.5,286046997.6,N
1663772995.4,286046995.5,N
1663773015.2,286046995.1,N
1663773035.0,286046996.7,N
1663773035.9,286046996.7,N
1663773055.8,286046999.4,N
1663773075.6,286046997.3,N
1663773095.4,286046996.7,N
1663773115.3,286046999.4,N
1663773135.1,286046998.5,N
1663773155.9,286047001.0,N
1663773175.7,286046999.8,N
1663773195.5,286047002.6,N
1663773215.4,286046998.5,N
1663773235.2,286046997.9,N
1663773255.1,286046996.1,N
1663773256.0,286046996.1,N
1663773275.8,286046994.9,N
1663773295.6,286046995.4,N
1663773315.5,286046999.6,N
1663773335.3,286046997.0,N
1663773355.1,286046996.9,N
1663773375.9,286046996.9,N
1663773395.7,286046999.2,N
1663773415.6,286046996.8,N
1663773435.4,286046998.6,N
1663773455.2,286047000.9,N
1663773475.1,286047000.9,N
1663773476.0,286047000.9,N
1663773495.8,286047002.3,N
1663773515.6,286047000.1,N
1663773535.5,286047002.3,N
1663773555.3,286047002.8,N
1663773575.2,286046998.3,N
1663773595.9,286046999.3,N
1663773615.7,286046998.7,N
1663773635.6,286046998.6,N
1663773655.4,286047000.7,N
1663773675.2,286047000.1,N
1663773695.1,286047002.3,N
1663773696.0,286047002.3,N
1663773715.8,286047001.0,N
1663773735.7,286046998.1,N
1663773755.5,286046999.4,N
1663773775.3,286047000.4,N
1663773795.2,286047002.4,N
1663773815.9,286047001.6,N
1663773835.7,286046999.8,N
1663773855.6,286046998.9,N
1663773875.4,286046998.7,N
1663773895.3,286047000.2,N
1663773915.1,286047001.5,N
1663773916.0,286047001.5,N
1663773935.8,286047002.6,N
1663773955.7,286047002.6,N
1663773975.5,286047000.6,N
1663773995.3,286047002.3,N
1663774015.2,286047001.6,N
1663774035.0,286047001.6,N
1663774035.9,286047001.6,N
1663774055.8,286047005.7,Y
1663774075.6,286047001.9,P
1663774095.4,286047000.0,N
1663774115.3,286047000.1,N
1663774135.1,286047000.4,N
1663774155.8,286047000.1,N
1663774175.7,286047000.2,N
1663774195.5,286047000.1,N
1663774215.4,286047000.2,N
1663774235.2,286047000.9,N
1663774255.0,286047001.1,N
1663774255.9,286047001.1,N
1663774275.8,286047000.4,N
1663774295.6,286046999.8,N
1663774315.4,286047001.0,N
1663774335.3,286046998.6,N
1663774355.1,286046998.4,N
1663774375.9,286046998.3,N
1663774395.7,286046999.8,N
1663774415.5,286047002.1,N
1663774435.4,286047001.7,N
1663774455.2,286047002.0,N
1663774475.0,286047002.1,N
1663774475.9,286047002.1,N
1663774495.8,286046999.8,N
1663774515.6,286047002.8,N
1663774535.5,286046999.9,N
1663774555.3,286047000.6,N
1663774575.1,286047000.1,N
1663774595.9,286047002.2,N
1663774615.7,286046998.3,N
1663774635.6,286046994.9,Y
1663774655.4,286046996.9,P
1663774675.2,286046996.5,N
1663774695.1,286046997.8,N
1663774696.0,286046997.8,N
1663774715.8,286046996.8,N
1663774735.6,286046998.7,N
1663774755.5,286047000.1,N
1663774775.3,286047000.6,N
1663774795.2,286047000.9,N
1663774815.9,286047000.5,N
1663774835.7,286046999.8,N
1663774855.6,286047002.0,N
1663774875.4,286047002.0,N
1663774895.3,286047000.2,N
1663774915.1,286047000.4,N
1663774916.0,286047000.4,N
1663774935.8,286047000.1,N
1663774955.7,286046999.8,N
1663774975.5,286046998.9,N
1663774995.3,286046996.9,N
1663775015.2,286046998.9,N
1663775035.0,286047000.8,N
1663775035.9,286047000.8,N
1663775055.8,286047000.5,N
1663775075.6,286047002.5,N
1663775095.4,286047002.4,N
1663775115.3,286046999.7,N
1663775135.1,286046998.1,N
1663775155.8,286047000.4,N
1663775175.7,286046998.6,N
1663775195.5,286046998.4,N
1663775215.4,286047000.9,N
1663775235.2,286047000.7,N
1663775255.0,286047000.4,N
1663775255.9,286047000.4,N
1663775275.8,286046997.9,N
1663775295.6,286046997.3,N
1663775315.5,286046998.1,N
1663775335.3,286047000.0,N
1663775355.1,286047001.1,N
1663775375.9,286047001.0,N
1663775395.7,286046998.1,N
1663775415.5,286047000.7,N
1663775435.4,286046998.5,N
1663775455.2,286046998.9,N
1663775475.1,286047001.2,N
1663775476.0,286047001.2,N
1663775495.8,286047001.2,N
1663775515.6,286046998.6,N
1663775535.5,286046997.7,N
1663775555.3,286046995.1,Y
1663775575.1,286046996.5,P
1663775595.9,286047001.2,N
1663775615.7,286047002.8,N
1663775635.6,286047001.8,N
1663775655.4,286047000.5,N
1663775675.2,286047000.3,N
1663775695.1,286046999.4,N
1663775696.0,286046999.4,N
1663775715.8,286047000.2,N
1663775735.7,286047002.0,N
1663775755.5,286047003.1,N
1663775775.3,286047003.4,N
1663775795.2,286047004.2,N
1663775815.0,286046999.7,N
1663775815.9,286046999.7,N
1663775835.7,286047000.9,N
1663775855.6,286047002.8,N
1663775875.4,286047001.6,N
1663775895.3,286047000.4,N
1663775915.1,286046998.6,N
1663775916.0,286046998.6,N
1663775935.8,286046998.2,N
1663775955.7,286047000.4,N
1663775975.5,286046998.5,N
1663775995.3,286046998.2,N
